Time,TemperatureF,DewpointF,PressureIn,WindDirection,WindDirectionDegrees,WindSpeedMPH,WindSpeedGustMPH,Humidity,HourlyPrecipIn,Conditions,Clouds,dailyrainin,SolarRadiationWatts/m^2,SoftwareType,DateUTC
2014-08-29 00:10:00,61.1,59.0,30.03,NNE,17,0.0,4.0,91,0.00,,,0.00,0,weatherlink.com 1.10,2014-08-29 07:10:00,
2014-08-29 00:26:00,60.9,59.0,30.03,NNE,17,0.0,5.0,92,0.00,,,0.00,0,weatherlink.com 1.10,2014-08-29 07:26:00,
2014-08-29 00:41:00,60.9,59.0,30.03,NNE,17,0.0,3.0,92,0.00,,,0.00,0,weatherlink.com 1.10,2014-08-29 07:41:00,
2014-08-29 00:56:00,60.7,58.0,30.03,NNE,17,0.0,4.0,92,0.00,,,0.00,0,weatherlink.com 1.10,2014-08-29 07:56:00,
2014-08-29 01:11:00,60.8,59.0,30.02,NNE,17,0.0,3.0,92,0.00,,,0.00,0,weatherlink.com 1.10,2014-08-29 08:11:00,
2014-08-29 01:26:00,60.8,59.0,30.01,NNE,17,0.0,4.0,92,0.00,,,0.00,0,weatherlink.com 1.10,2014-08-29 08:26:00,
2014-08-29 01:41:00,60.7,58.0,30.01,NNE,17,0.0,3.0,92,0.00,,,0.00,0,weatherlink.com 1.10,2014-08-29 08:41:00,
2014-08-29 01:56:00,60.6,58.0,30.00,NNE,17,2.0,2.0,92,0.00,,,0.00,0,weatherlink.com 1.10,2014-08-29 08:56:00,
2014-08-29 02:11:00,60.4,58.0,30.00,NNE,17,0.0,4.0,92,0.00,,,0.00,0,weatherlink.com 1.10,2014-08-29 09:11:00,
2014-08-29 02:26:00,60.2,58.0,30.00,NNE,17,1.0,5.0,92,0.00,,,0.00,0,weatherlink.com 1.10,2014-08-29 09:26:00,
2014-08-29 02:41:00,60.1,58.0,30.00,NNE,17,4.0,8.0,92,0.00,,,0.00,0,weatherlink.com 1.10,2014-08-29 09:41:00,
2014-08-29 02:56:00,60.0,58.0,29.99,NNE,17,5.0,6.0,92,0.00,,,0.00,0,weatherlink.com 1.10,2014-08-29 09:56:00,
2014-08-29 03:11:00,59.9,58.0,29.99,NNE,19,0.0,4.0,93,0.00,,,0.00,0,weatherlink.com 1.10,2014-08-29 10:11:00,
2014-08-29 03:26:00,59.8,58.0,29.99,NNE,19,1.0,3.0,93,0.00,,,0.00,0,weatherlink.com 1.10,2014-08-29 10:26:00,
2014-08-29 03:41:00,59.8,58.0,29.99,NNE,19,0.0,5.0,93,0.00,,,0.00,0,weatherlink.com 1.10,2014-08-29 10:41:00,
2014-08-29 03:56:00,59.8,58.0,29.98,NNE,19,0.0,3.0,93,0.00,,,0.00,0,weatherlink.com 1.10,2014-08-29 10:56:00,
2014-08-29 04:11:00,59.9,58.0,29.98,NNE,19,0.0,2.0,94,0.00,,,0.00,0,weatherlink.com 1.10,2014-08-29 11:11:00,
2014-08-29 04:26:00,60.0,58.0,29.98,NNE,19,0.0,3.0,94,0.00,,,0.00,0,weatherlink.com 1.10,2014-08-29 11:26:00,
2014-08-29 04:41:00,60.1,58.0,29.98,NNE,19,0.0,3.0,94,0.00,,,0.00,0,weatherlink.com 1.10,2014-08-29 11:41:00,
2014-08-29 04:56:00,60.2,59.0,29.98,NNE,19,0.0,5.0,94,0.00,,,0.00,0,weatherlink.com 1.10,2014-08-29 11:56:00,
2014-08-29 05:11:00,60.3,59.0,29.98,NNE,17,0.0,6.0,94,0.00,,,0.00,0,weatherlink.com 1.10,2014-08-29 12:11:00,
2014-08-29 05:26:00,60.4,59.0,29.98,NNE,17,1.0,3.0,95,0.00,,,0.00,0,weatherlink.com 1.10,2014-08-29 12:26:00,
2014-08-29 05:41:00,60.3,59.0,29.98,NNE,17,0.0,3.0,95,0.00,,,0.00,0,weatherlink.com 1.10,2014-08-29 12:41:00,
2014-08-29 05:56:00,60.1,59.0,29.98,NNE,17,3.0,4.0,95,0.00,,,0.00,0,weatherlink.com 1.10,2014-08-29 12:56:00,
2014-08-29 06:11:00,60.0,59.0,29.98,NNE,17,0.0,2.0,95,0.00,,,0.00,0,weatherlink.com 1.10,2014-08-29 13:11:00,
2014-08-29 06:26:00,60.1,59.0,29.98,NNE,17,0.0,0.0,95,0.00,,,0.00,0,weatherlink.com 1.10,2014-08-29 13:26:00,
2014-08-29 06:41:00,60.2,59.0,29.98,NNE,17,0.0,5.0,95,0.00,,,0.00,0,weatherlink.com 1.10,2014-08-29 13:41:00,
2014-08-29 06:56:00,60.2,59.0,29.98,NNE,17,0.0,4.0,95,0.00,,,0.00,5,weatherlink.com 1.10,2014-08-29 13:56:00,
2014-08-29 07:11:00,60.2,59.0,29.97,NNE,17,0.0,4.0,95,0.00,,,0.00,12,weatherlink.com 1.10,2014-08-29 14:11:00,
2014-08-29 07:26:00,60.0,59.0,29.98,NNE,17,0.0,3.0,95,0.00,,,0.00,23,weatherlink.com 1.10,2014-08-29 14:26:00,
2014-08-29 07:42:00,60.0,59.0,29.99,NNE,17,1.0,4.0,95,0.00,,,0.00,32,weatherlink.com 1.10,2014-08-29 14:42:00,
2014-08-29 07:57:00,59.9,59.0,29.99,NNE,17,0.0,4.0,95,0.00,,,0.00,53,weatherlink.com 1.10,2014-08-29 14:57:00,
2014-08-29 08:12:00,59.9,59.0,29.99,NNE,17,0.0,4.0,95,0.00,,,0.00,72,weatherlink.com 1.10,2014-08-29 15:12:00,
2014-08-29 08:27:00,60.0,59.0,29.99,NNE,17,3.0,3.0,95,0.00,,,0.00,83,weatherlink.com 1.10,2014-08-29 15:27:00,
2014-08-29 08:42:00,60.1,59.0,29.99,NNE,17,0.0,3.0,95,0.00,,,0.00,98,weatherlink.com 1.10,2014-08-29 15:42:00,
2014-08-29 08:57:00,60.5,59.0,29.99,NNE,17,0.0,4.0,95,0.00,,,0.00,95,weatherlink.com 1.10,2014-08-29 15:57:00,
2014-08-29 09:12:00,60.9,59.0,29.99,NNE,17,1.0,6.0,94,0.00,,,0.00,121,weatherlink.com 1.10,2014-08-29 16:12:00,
2014-08-29 09:27:00,61.4,60.0,29.98,NNE,17,0.0,4.0,94,0.00,,,0.00,188,weatherlink.com 1.10,2014-08-29 16:27:00,
2014-08-29 09:42:00,62.4,61.0,29.98,NNE,17,0.0,4.0,94,0.00,,,0.00,325,weatherlink.com 1.10,2014-08-29 16:42:00,
2014-08-29 09:57:00,64.0,62.0,29.98,North,355,1.0,9.0,92,0.00,,,0.00,427,weatherlink.com 1.10,2014-08-29 16:57:00,
2014-08-29 10:12:00,65.0,61.0,29.98,North,355,3.0,9.0,88,0.00,,,0.00,309,weatherlink.com 1.10,2014-08-29 17:12:00,
2014-08-29 10:27:00,65.3,61.0,29.99,North,360,2.0,5.0,86,0.00,,,0.00,313,weatherlink.com 1.10,2014-08-29 17:27:00,
2014-08-29 10:42:00,65.6,61.0,29.98,NNE,17,0.0,10.0,84,0.00,,,0.00,439,weatherlink.com 1.10,2014-08-29 17:42:00,
2014-08-29 10:58:00,67.6,62.0,29.97,NNE,19,4.0,14.0,83,0.00,,,0.00,770,weatherlink.com 1.10,2014-08-29 17:58:00,
2014-08-29 11:13:00,69.7,62.0,29.96,North,5,9.0,10.0,77,0.00,,,0.00,846,weatherlink.com 1.10,2014-08-29 18:13:00,
2014-08-29 11:28:00,71.0,62.0,29.96,NNW,339,6.0,15.0,73,0.00,,,0.00,650,weatherlink.com 1.10,2014-08-29 18:28:00,
2014-08-29 11:43:00,70.5,61.0,29.97,North,5,2.0,12.0,73,0.00,,,0.00,387,weatherlink.com 1.10,2014-08-29 18:43:00,
2014-08-29 11:58:00,69.8,61.0,29.96,NE,40,10.0,15.0,74,0.00,,,0.00,552,weatherlink.com 1.10,2014-08-29 18:58:00,